Wind_Speed
32 29 26 26 23 16 18 18 31 31 24 20 16 18 21 20 19 15 12 9 12 12 7 7 8 9 11 10 10 9 7 4 3 5 5 4 8 12 15 14 16 17 12 13
33 32 29 29 30 24 23 31 35 37 25 20 9 13 11 13 17 19 19 14 9 15 16 12 10 11 9 6 3 8 9 9 9 8 11 10 13 12 16 17 18 16 15 16
36 37 33 31 32 30 29 31 30 27 22 21 7 13 1 11 19 27 21 19 13 11 16 18 16 16 11 9 8 7 10 14 17 18 20 21 23 19 17 17 17 18 20 20
41 41 37 34 34 32 32 31 28 22 24 21 9 13 14 24 7 18 22 20 21 16 13 12 17 24 21 17 10 7 7 6 5 7 12 17 19 22 21 22 22 22 21 22
44 43 42 39 37 36 32 34 30 26 25 21 15 12 26 21 4 23 29 32 24 22 17 14 15 16 18 15 12 13 10 8 8 5 5 4 8 9 15 19 19 19 17 21
47 50 46 42 40 41 37 35 33 28 26 24 21 14 16 27 20 22 23 28 27 30 22 18 16 19 17 16 12 13 10 7 8 5 3 3 1 2 7 12 15 17 19 23
49 50 47 47 49 44 40 40 38 30 29 26 26 18 18 20 19 29 36 30 27 29 32 27 18 21 22 24 22 12 9 10 14 9 6 9 10 8 9 11 13 15 16 17
54 52 53 48 49 47 43 43 39 37 35 31 30 22 25 4 9 25 43 39 39 35 33 35 30 22 25 25 22 18 16 14 18 19 17 12 12 14 10 11 9 10 5 5
57 58 59 54 49 46 48 44 43 40 37 35 33 30 24 12 15 28 39 37 38 35 36 37 36 31 28 29 28 26 26 23 24 24 23 21 20 19 19 14 13 12 10 10
46 54 61 61 54 51 53 49 46 43 39 37 35 33 32 34 33 38 52 46 32 37 36 38 38 37 33 31 31 32 31 32 30 28 24 24 21 19 19 20 18 14 13 14
37 40 47 55 61 60 60 57 53 50 45 41 38 35 41 48 48 43 53 40 28 37 40 40 39 36 37 38 37 40 37 36 35 34 25 26 25 21 20 20 24 22 18 20
25 32 39 43 48 59 65 67 63 58 52 48 44 36 45 46 47 53 52 43 33 36 38 41 40 39 40 39 41 39 42 40 38 29 28 26 25 24 23 21 25 26 28 24
13 22 27 33 44 42 50 61 65 66 63 56 52 45 53 56 57 54 52 51 34 36 36 36 40 41 41 44 42 44 40 39 37 32 33 32 29 28 25 23 24 26 24 19
20 15 14 21 33 37 38 46 58 65 68 65 61 61 64 63 64 58 60 46 46 41 39 39 38 39 43 43 44 45 45 42 41 38 34 34 35 30 25 25 24 23 20 23
22 22 19 13 19 24 33 38 47 55 59 67 67 73 68 69 68 66 60 50 50 42 44 41 41 41 42 42 43 43 41 43 43 43 42 40 35 30 28 30 29 29 28 27
22 20 21 20 20 16 15 23 36 41 52 62 69 72 75 77 76 83 64 57 48 56 56 48 45 46 45 44 42 39 38 39 40 40 40 34 29 27 31 32 31 31 28 23
24 23 20 21 21 21 20 17 17 26 36 49 58 66 75 79 81 85 66 65 60 63 65 56 50 50 49 48 43 40 39 38 39 39 38 34 33 33 31 32 31 30 25 18
25 25 25 26 23 22 20 20 21 18 22 31 40 57 62 70 71 73 72 66 71 72 70 69 59 58 56 52 49 46 41 40 41 41 41 38 33 32 32 31 29 32 32 30
28 26 28 30 28 27 25 21 24 22 22 20 31 34 38 38 16 60 55 64 72 78 79 77 72 67 63 58 53 51 49 45 44 43 42 41 33 35 30 31 32 33 33 35
30 29 30 33 32 32 32 31 27 29 24 26 27 19 29 33 37 45 55 50 63 79 81 83 81 76 70 66 59 57 54 51 49 46 44 42 36 34 29 36 34 34 37 38
34 38 38 37 35 34 38 35 36 36 26 31 31 22 28 38 55 60 63 50 53 72 76 80 85 82 77 72 64 62 60 56 52 50 48 41 39 34 35 37 35 39 38 40
41 41 43 45 43 42 40 42 44 41 37 34 34 34 35 36 44 53 58 67 60 67 62 70 84 82 81 78 72 68 66 61 56 53 49 43 38 38 37 37 39 44 44 44
47 48 48 47 46 48 45 46 49 42 41 40 38 35 41 40 37 36 40 60 60 67 78 68 71 80 78 79 79 72 69 67 62 56 49 45 44 39 35 38 42 45 49 48
54 55 52 50 49 52 56 55 56 56 54 47 46 40 44 44 41 36 39 41 52 60 70 83 86 81 83 81 80 75 75 69 65 61 53 50 47 41 35 41 43 48 52 54
59 61 59 55 56 60 65 67 63 61 55 57 55 50 51 51 48 44 40 38 43 51 59 69 74 83 85 82 80 79 77 72 68 64 58 56 49 38 42 47 51 53 56 57
62 66 64 59 63 66 63 64 69 73 70 67 61 56 56 58 53 51 49 44 42 45 55 59 66 72 81 84 81 78 77 77 72 68 63 57 52 47 49 53 56 58 61 61
Wind_Direction
263 264 264 268 265 202 169 229 242 260 287 280 275 271 280 279 267 257 251 216 236 238 222 171 157 157 145 149 158 168 178 197 214 211 196 240 235 253 238 240 249 259 265 284
259 261 256 258 261 249 230 239 249 259 265 261 276 239 292 292 290 263 259 238 233 223 230 227 202 164 152 151 229 230 226 231 243 242 246 254 256 249 256 258 267 265 258 281
257 256 256 253 255 256 254 251 247 248 251 252 232 217 34 339 316 305 275 258 241 225 232 238 228 221 229 241 238 244 240 243 253 260 262 264 264 263 262 266 262 261 262 274
252 253 253 253 252 251 252 255 258 257 259 248 210 188 170 154 236 319 292 261 248 243 242 242 245 239 243 244 240 192 206 200 196 238 257 256 256 260 255 254 267 267 271 286
250 251 252 249 248 249 249 254 258 262 259 257 234 184 195 192 91 231 265 264 243 234 240 251 248 236 223 230 236 193 181 163 115 31 1 275 255 259 253 250 257 255 264 274
248 249 250 253 251 248 247 254 254 254 258 263 250 226 188 220 206 211 256 263 245 231 228 240 251 233 219 222 212 211 214 224 246 285 147 129 176 212 222 242 251 259 265 270
247 249 249 249 250 252 251 251 255 255 254 254 256 238 226 191 215 243 236 250 259 241 232 238 243 226 223 216 225 223 240 266 256 257 273 267 271 284 292 278 266 262 265 274
246 246 246 243 249 252 254 254 255 255 254 249 255 249 249 181 220 249 228 238 262 249 242 238 240 231 223 228 219 225 238 257 249 267 278 299 300 271 289 288 278 274 253 194
245 245 247 244 243 249 250 250 250 250 250 248 250 245 238 198 186 261 265 248 250 243 241 234 240 240 232 239 230 229 239 241 256 268 269 270 284 284 254 264 253 268 265 235
247 244 244 245 240 240 245 246 246 248 244 243 242 241 241 221 196 224 243 253 230 243 240 240 236 237 236 237 236 238 241 247 258 266 273 272 273 277 261 254 247 247 243 245
252 252 252 248 244 237 239 241 242 243 243 239 237 235 235 232 212 220 243 251 233 239 239 238 241 233 235 238 243 247 248 256 258 263 266 265 265 266 271 260 243 255 256 266
259 247 242 245 249 243 237 238 240 239 239 240 237 233 243 247 242 241 245 244 230 237 239 237 236 237 233 235 240 244 255 262 267 261 260 260 261 264 266 269 242 254 272 278
302 267 255 249 249 247 241 244 245 244 240 238 237 232 240 239 237 239 242 242 229 244 239 239 235 235 236 236 241 247 252 258 261 267 264 261 261 266 264 276 278 270 281 256
3 351 287 263 255 254 247 238 242 243 243 241 239 238 236 238 243 238 242 242 247 241 239 241 239 238 237 238 240 246 249 253 257 260 265 265 269 266 266 274 277 269 262 252
353 358 360 339 281 263 254 247 239 238 240 243 241 242 243 245 247 249 245 244 251 249 246 243 244 243 243 238 238 239 247 248 249 256 263 268 267 262 261 271 273 266 264 261
335 341 344 351 352 329 274 258 254 246 242 238 239 241 243 245 246 246 241 240 242 250 247 242 243 244 246 243 240 241 244 250 253 252 258 257 256 259 261 265 266 260 259 262
325 327 330 337 339 340 342 330 283 262 253 245 242 241 240 243 243 251 247 245 244 247 255 249 245 246 247 249 246 246 247 250 253 256 261 263 256 258 257 259 264 259 249 259
319 318 320 323 326 325 327 329 330 321 273 258 252 245 244 246 247 249 248 243 240 245 249 253 249 249 249 247 249 249 246 249 253 256 258 259 261 262 266 265 266 260 245 252
307 306 311 313 316 313 314 318 319 321 319 302 261 253 251 252 256 273 260 257 248 243 244 247 250 249 250 249 249 250 250 247 249 252 256 259 258 263 266 269 267 254 252 263
299 300 304 307 307 303 302 304 310 309 310 299 294 235 226 208 152 221 244 260 250 246 245 245 246 247 248 249 249 251 250 252 253 252 253 257 260 263 269 269 273 271 264 271
297 301 302 301 301 294 293 303 296 300 305 292 291 241 249 231 212 241 233 242 244 245 244 244 246 245 246 247 246 250 252 251 252 255 256 256 262 269 267 271 276 269 269 267
293 295 295 298 298 290 291 292 298 297 298 288 281 276 273 268 253 249 240 241 247 239 242 243 243 244 244 245 245 246 251 253 253 255 258 261 262 263 264 267 265 269 271 272
292 293 293 291 291 292 291 293 295 290 285 283 273 267 267 266 273 274 257 250 249 243 233 240 242 241 244 244 246 245 247 250 253 256 255 258 260 261 258 263 266 270 271 274
290 289 289 284 285 290 291 288 289 289 290 283 275 257 254 255 252 256 265 251 243 243 239 241 245 241 241 242 246 247 247 248 251 254 256 256 259 261 260 261 263 269 272 274
284 284 282 284 286 290 293 294 290 287 282 281 278 269 257 256 252 252 250 252 246 246 241 240 241 240 240 241 241 243 247 251 253 256 257 259 261 261 259 260 264 266 270 273
284 282 283 289 292 290 289 289 290 291 290 284 276 268 260 255 251 248 248 250 245 247 246 243 241 241 240 241 242 242 243 247 250 252 256 260 265 267 263 263 264 266 271 275
Height
10954 10958 10961 10962 10964 10971 10972 10971 10963 10964 10966 10965 10965 10966 10966 10965 10967 10969 10968 10969 10971 10973 10973 10971 10970 10969 10970 10971 10973 10974 10976 10978 10978 10977 10978 10979 10981 10985 10983 10983 10984 10984 10983 10982
10946 10949 10952 10954 10955 10960 10965 10964 10960 10962 10965 10965 10968 10967 10968 10965 10964 10967 10969 10969 10968 10969 10971 10972 10972 10971 10971 10973 10975 10975 10976 10976 10974 10976 10976 10978 10978 10978 10979 10979 10979 10981 10979 10980
10936 10938 10943 10947 10948 10950 10951 10954 10956 10959 10960 10961 10966 10965 10967 10962 10963 10966 10966 10969 10966 10965 10967 10969 10971 10970 10971 10971 10972 10973 10974 10973 10972 10973 10973 10972 10972 10972 10974 10974 10976 10977 10977 10975
10926 10927 10934 10937 10940 10943 10944 10945 10948 10951 10952 10955 10960 10963 10962 10960 10968 10959 10958 10962 10966 10963 10963 10965 10967 10968 10969 10970 10971 10972 10971 10970 10969 10968 10968 10967 10966 10966 10967 10970 10972 10972 10972 10971
10917 10919 10922 10928 10931 10933 10938 10938 10942 10944 10945 10949 10953 10957 10957 10954 10950 10951 10952 10954 10957 10959 10960 10961 10963 10964 10965 10968 10970 10970 10969 10970 10969 10968 10965 10962 10962 10963 10964 10966 10967 10967 10968 10967
10904 10906 10913 10918 10921 10923 10928 10930 10933 10937 10940 10943 10945 10951 10952 10947 10944 10945 10954 10951 10952 10952 10955 10957 10959 10962 10962 10965 10968 10968 10968 10968 10968 10968 10967 10965 10963 10963 10963 10963 10963 10964 10964 10963
10891 10894 10902 10906 10907 10913 10919 10921 10925 10930 10932 10936 10937 10944 10944 10946 10944 10944 10947 10945 10948 10947 10950 10953 10956 10959 10960 10962 10964 10965 10966 10966 10966 10965 10966 10966 10966 10964 10963 10962 10961 10961 10960 10960
10879 10884 10884 10893 10898 10903 10909 10910 10916 10919 10922 10926 10929 10936 10937 10944 10946 10944 10938 10943 10939 10941 10945 10949 10952 10955 10958 10958 10959 10961 10962 10962 10962 10963 10965 10966 10965 10964 10963 10961 10961 10960 10959 10958
10862 10869 10870 10879 10887 10893 10894 10900 10903 10906 10912 10916 10920 10926 10931 10932 10927 10934 10924 10929 10931 10935 10939 10942 10946 10949 10953 10954 10954 10955 10956 10956 10958 10960 10962 10963 10963 10962 10961 10959 10958 10958 10958 10958
10847 10852 10855 10861 10874 10879 10879 10885 10890 10895 10900 10905 10909 10915 10920 10922 10920 10920 10917 10919 10930 10928 10932 10936 10938 10942 10946 10948 10950 10950 10950 10950 10952 10955 10957 10958 10958 10959 10957 10956 10956 10955 10955 10955
10837 10842 10845 10849 10855 10863 10864 10869 10876 10880 10888 10892 10898 10905 10903 10897 10912 10912 10912 10916 10924 10924 10925 10929 10931 10934 10938 10940 10942 10943 10944 10943 10946 10950 10951 10951 10953 10954 10953 10952 10952 10952 10952 10951
10830 10830 10830 10834 10839 10844 10849 10854 10859 10867 10875 10880 10887 10897 10890 10893 10899 10900 10903 10902 10911 10915 10917 10920 10924 10926 10928 10931 10934 10935 10936 10938 10939 10943 10943 10945 10947 10948 10947 10947 10946 10946 10946 10944
10823 10822 10825 10827 10821 10830 10834 10845 10853 10856 10860 10869 10874 10885 10875 10875 10876 10881 10885 10888 10904 10908 10909 10911 10914 10917 10919 10921 10924 10926 10928 10930 10932 10935 10937 10938 10940 10940 10940 10941 10940 10938 10936 10934
10822 10818 10817 10816 10815 10818 10825 10828 10833 10838 10845 10854 10861 10864 10857 10858 10859 10865 10865 10884 10888 10894 10898 10901 10904 10908 10910 10912 10915 10917 10920 10921 10924 10927 10929 10931 10932 10934 10933 10933 10932 10930 10929 10928
10820 10816 10814 10811 10809 10810 10813 10816 10819 10823 10830 10834 10847 10844 10854 10853 10853 10853 10862 10874 10876 10884 10886 10891 10894 10897 10899 10903 10906 10910 10911 10913 10915 10918 10919 10921 10922 10924 10925 10924 10924 10922 10922 10921
10819 10816 10812 10809 10806 10804 10804 10805 10807 10812 10815 10817 10821 10827 10836 10837 10840 10825 10853 10862 10873 10868 10868 10877 10882 10884 10888 10891 10897 10900 10903 10905 10907 10908 10909 10910 10912 10914 10913 10913 10914 10915 10914 10912
10814 10811 10810 10808 10805 10802 10799 10798 10799 10801 10803 10805 10808 10814 10812 10812 10820 10818 10850 10853 10862 10859 10857 10865 10871 10872 10874 10879 10885 10890 10893 10895 10897 10899 10899 10901 10903 10904 10904 10905 10906 10905 10905 10903
10809 10806 10803 10802 10801 10799 10797 10795 10792 10792 10792 10793 10797 10792 10797 10803 10811 10813 10821 10840 10842 10844 10848 10850 10858 10860 10863 10867 10873 10877 10881 10885 10885 10887 10888 10891 10896 10897 10897 10898 10898 10897 10895 10893
10803 10800 10798 10795 10794 10793 10791 10791 10789 10788 10786 10782 10773 10783 10789 10799 10813 10822 10819 10826 10830 10827 10828 10832 10839 10846 10850 10855 10861 10864 10867 10872 10874 10877 10879 10881 10886 10887 10891 10891 10889 10887 10887 10884
10794 10794 10792 10788 10787 10784 10782 10782 10783 10781 10781 10772 10765 10776 10776 10783 10794 10768 10792 10800 10800 10801 10811 10816 10819 10825 10833 10841 10850 10851 10854 10858 10860 10865 10867 10871 10876 10878 10882 10879 10878 10876 10875 10874
10786 10781 10779 10779 10778 10774 10771 10771 10770 10772 10775 10765 10760 10760 10766 10771 10771 10760 10782 10781 10780 10781 10790 10793 10799 10806 10813 10823 10837 10837 10840 10844 10849 10852 10855 10863 10865 10870 10871 10869 10867 10862 10863 10863
10773 10772 10768 10766 10765 10763 10761 10757 10757 10758 10763 10760 10752 10749 10748 10748 10750 10754 10765 10760 10768 10767 10769 10774 10782 10789 10797 10805 10815 10823 10826 10831 10836 10839 10846 10853 10856 10856 10858 10859 10855 10851 10851 10852
10761 10757 10755 10753 10750 10746 10749 10746 10743 10743 10744 10746 10745 10741 10735 10733 10734 10733 10736 10738 10746 10744 10752 10756 10764 10771 10777 10787 10794 10806 10812 10815 10823 10830 10834 10842 10842 10844 10845 10847 10845 10843 10840 10841
10743 10740 10742 10740 10736 10732 10728 10731 10730 10726 10725 10726 10726 10730 10723 10724 10726 10726 10724 10724 10727 10727 10734 10738 10744 10752 10760 10770 10778 10786 10793 10800 10809 10815 10824 10829 10831 10834 10838 10835 10833 10831 10828 10826
10724 10720 10720 10725 10721 10717 10709 10703 10703 10706 10706 10704 10705 10708 10706 10706 10707 10709 10709 10711 10712 10714 10717 10719 10724 10731 10741 10749 10763 10771 10778 10787 10794 10802 10809 10816 10817 10825 10826 10823 10819 10817 10815 10813
10703 10700 10703 10708 10700 10696 10693 10687 10678 10676 10677 10677 10679 10684 10685 10684 10687 10689 10691 10694 10697 10698 10698 10701 10707 10714 10724 10733 10742 10752 10763 10769 10777 10785 10795 10800 10805 10810 10811 10810 10807 10804 10802 10803